ENDUROSAT ONE (43551 NORAD) Tracking and Keplerian Element Data

This shows tracking and keplerian element data for the satellite.

Feedback or suggestion? Click here.




ElementValue
Catalog43551
NameENDUROSAT ONE
Epoch Orbit12948
Epoch Day289.4000814
Epoch Year2020
RAAN6.3935
Inclination51.6143
Eccentricity0.0004068
Argument of Perigee320.9805
Mean Anonmoly39.093
Mean Motion16.45548142
Decay Rate0.1281997
L11 43551U 98067NZ 20289.40008140 .12819970 12606-4 34454-3 0 9995
L22 43551 51.6143 6.3935 0004068 320.9805 39.0930 16.45548142129489



Live tracking and technical data element details for ENDUROSAT ONE (NORAD 43551). ENDUROSAT ONE can be tracked NOW for your location showing map with azimuth and elevation plus other details from your city location.







IsCatalogInMostPopularTable: catalog: 43551, numindb: 670
Update: records affected: 1



GetName: 43551 ENDUROSAT ONE

Hit Count: updated at: Wed, 18 Jun 2025 05:26:46 GMT